Date String (YYYY-MM-DD hh:mm:ss) UTC,Instrument flags,absolute air pressure of the measurement (hPa),sample flow rate (lpm),inlet stack bypass flow (lpm),air temperature of the measurement (°C),ambient temperature measured by the external sensor (°C),aerosol sample conditioner tube jacket temperature (°C),OPC LED temperature (°C),internal box temperature (°C),relative humidity of the measurement (%),span deviation,mass concentration of particles derived from Lorenz-Mie calculation of OPC scattering (μg/m³),mass concentration of particles derived from Lorenz-Mie calculation of OPC scattering (μg/m³),mass concentration of particles derived from Lorenz-Mie calculation of OPC scattering (μg/m³)
DateTimeUTC,F1_M11,P_M11,Q1_M11,Q2_M11,T1_M11,T2_M11,T3_M11,T4_M11,T5_M11,U1_M11,ZSPAN_M11,X0_M11,X2_M11,X1_M11
2023-10-14 02:00:00,SystemResetWarning,0835.9,5.00,000.00,029.9,028.4,000.0,038.4,031.4,10.9,0000.0,0008.04,0002.58,0002.13
2023-10-14 02:01:00,SystemResetWarning,0835.9,5.01,000.00,029.9,028.4,000.0,038.3,031.4,10.9,0000.0,0007.73,0002.59,0002.15
2023-10-14 02:02:00,SystemResetWarning,0835.9,5.01,000.00,029.9,028.4,000.0,038.4,031.4,10.9,0000.0,0007.62,0002.59,0002.17
2023-10-14 02:03:00,SystemResetWarning,0835.9,5.00,000.00,029.9,028.3,000.0,038.3,031.4,10.9,0000.0,0005.89,0002.56,0002.19
2023-10-14 02:04:00,SystemResetWarning,0835.9,4.99,000.00,029.9,028.3,000.0,038.4,031.4,11.1,0000.0,0005.16,0002.54,0002.21
2023-10-14 02:05:00,SystemResetWarning,0835.9,5.01,000.00,029.8,028.3,000.0,038.4,031.4,11.2,0000.0,0004.17,0002.54,0002.23
2023-10-14 02:06:00,SystemResetWarning,0835.9,5.01,000.00,029.8,028.3,000.0,038.4,031.3,11.2,0000.0,0004.24,0002.57,0002.23
2023-10-14 02:07:00,SystemResetWarning,0835.9,5.01,000.00,029.8,028.3,000.0,038.4,031.3,11.2,0000.0,0004.28,0002.60,0002.26
2023-10-14 02:08:00,SystemResetWarning,0835.9,5.00,000.00,029.8,028.2,000.0,038.4,031.3,11.3,0000.0,0004.79,0002.59,0002.26
2023-10-14 02:09:00,SystemResetWarning,0835.9,4.98,000.00,029.8,028.2,000.0,038.3,031.3,11.4,0000.0,0005.25,0002.58,0002.26
2023-10-14 02:10:00,SystemResetWarning,0836.0,5.01,000.00,029.8,028.2,000.0,038.3,031.3,11.4,0000.0,0005.37,0002.64,0002.27
2023-10-14 02:11:00,SystemResetWarning,0836.0,5.01,000.00,029.8,028.2,000.0,038.3,031.3,11.5,0000.0,0005.47,0002.69,0002.28
2023-10-14 02:12:00,SystemResetWarning,0835.9,5.00,000.00,029.8,028.2,000.0,038.3,031.3,11.5,0000.0,0005.53,0002.73,0002.29
2023-10-14 02:13:00,SystemResetWarning,0836.0,5.00,000.00,029.7,028.1,000.0,038.3,031.2,11.6,0000.0,0005.40,0002.73,0002.28
2023-10-14 02:14:00,SystemResetWarning,0836.0,4.99,000.00,029.7,028.1,000.0,038.3,031.2,11.6,0000.0,0005.34,0002.73,0002.27
2023-10-14 02:15:00,SystemResetWarning,0836.0,5.00,000.00,029.7,028.1,000.0,038.3,031.2,11.6,0000.0,0005.15,0002.69,0002.23
2023-10-14 02:16:00,SystemResetWarning,0836.0,5.00,000.00,029.7,028.1,000.0,038.3,031.2,11.6,0000.0,0005.14,0002.67,0002.21
2023-10-14 02:17:00,SystemResetWarning,0836.0,5.00,000.00,029.7,028.1,000.0,038.3,031.2,11.6,0000.0,0005.25,0002.67,0002.22
2023-10-14 02:18:00,SystemResetWarning,0836.0,5.00,000.00,029.7,028.1,000.0,038.2,031.2,11.6,0000.0,0005.96,0002.65,0002.21
2023-10-14 02:19:00,SystemResetWarning,0836.0,5.00,000.00,029.7,028.1,000.0,038.2,031.2,11.7,0000.0,0005.53,0002.61,0002.21
2023-10-14 02:20:00,SystemResetWarning,0836.0,5.00,000.00,029.7,028.1,000.0,038.2,031.1,11.7,0000.0,0004.95,0002.60,0002.22
2023-10-14 02:21:00,SystemResetWarning,0836.0,5.01,000.00,029.6,028.1,000.0,038.2,031.1,11.7,0000.0,0004.87,0002.54,0002.21
2023-10-14 02:22:00,SystemResetWarning,0836.1,4.99,000.00,029.6,028.0,000.0,038.2,031.1,11.6,0000.0,0004.87,0002.52,0002.21
2023-10-14 02:23:00,SystemResetWarning,0836.1,4.99,000.00,029.6,028.0,000.0,038.2,031.1,11.6,0000.0,0004.82,0002.49,0002.20
2023-10-14 02:24:00,SystemResetWarning,0836.1,5.00,000.00,029.6,028.0,000.0,038.2,031.1,11.7,0000.0,0004.88,0002.51,0002.21
2023-10-14 02:25:00,SystemResetWarning,0836.1,5.00,000.00,029.6,028.0,000.0,038.2,031.1,11.7,0000.0,0004.83,0002.50,0002.20
2023-10-14 02:26:00,SystemResetWarning,0836.1,5.01,000.00,029.6,028.0,000.0,038.2,031.0,11.7,0000.0,0005.80,0002.56,0002.22
2023-10-14 02:27:00,SystemResetWarning,0836.1,4.99,000.00,029.6,027.9,000.0,038.2,031.0,11.8,0000.0,0006.39,0002.58,0002.23
2023-10-14 02:28:00,SystemResetWarning,0836.1,5.00,000.00,029.5,027.8,000.0,038.1,031.0,11.8,0000.0,0006.47,0002.60,0002.23
2023-10-14 02:29:00,SystemResetWarning,0836.1,5.00,000.00,029.5,027.7,000.0,038.1,030.9,12.0,0000.0,0005.93,0002.64,0002.22
2023-10-14 02:30:00,SystemResetWarning,0836.1,5.00,000.00,029.4,027.7,000.0,038.1,030.9,12.0,0000.0,0005.87,0002.68,0002.23
2023-10-14 02:31:00,SystemResetWarning,0836.1,5.01,000.00,029.4,027.6,000.0,038.1,030.8,12.1,0000.0,0005.70,0002.68,0002.23
2023-10-14 02:32:00,SystemResetWarning,0836.1,5.00,000.00,029.4,027.6,000.0,038.0,030.8,12.1,0000.0,0005.72,0002.72,0002.25
2023-10-14 02:33:00,SystemResetWarning,0836.1,5.00,000.00,029.3,027.6,000.0,038.0,030.8,12.2,0000.0,0006.32,0002.71,0002.25
2023-10-14 02:34:00,SystemResetWarning,0836.1,5.01,000.00,029.3,027.5,000.0,038.0,030.7,12.2,0000.0,0007.49,0002.77,0002.27
2023-10-14 02:35:00,SystemResetWarning,0836.2,5.00,000.00,029.3,027.5,000.0,038.0,030.7,12.3,0000.0,0008.16,0002.87,0002.32
2023-10-14 02:36:00,SystemResetWarning,0836.2,5.00,000.00,029.3,027.5,000.0,037.9,030.7,12.3,0000.0,0009.25,0002.95,0002.37
2023-10-14 02:37:00,SystemResetWarning,0836.2,5.00,000.00,029.2,027.5,000.0,037.9,030.7,12.4,0000.0,0009.05,0003.04,0002.40
2023-10-14 02:38:00,SystemResetWarning,0836.2,5.00,000.00,029.2,027.4,000.0,037.9,030.7,12.4,0000.0,0008.90,0003.11,0002.45
2023-10-14 02:39:00,SystemResetWarning,0836.2,4.99,000.00,029.2,027.4,000.0,037.9,030.6,12.4,0000.0,0008.87,0003.14,0002.50
2023-10-14 02:40:00,SystemResetWarning,0836.2,5.00,000.00,029.2,027.4,000.0,037.8,030.6,12.4,0000.0,0008.82,0003.14,0002.54
2023-10-14 02:41:00,SystemResetWarning,0836.3,5.00,000.00,029.1,027.4,000.0,037.8,030.6,12.5,0000.0,0008.72,0003.14,0002.57
2023-10-14 02:42:00,SystemResetWarning,0836.2,5.00,000.00,029.1,027.3,000.0,037.8,030.5,12.5,0000.0,0008.84,0003.19,0002.61
2023-10-14 02:43:00,SystemResetWarning,0836.3,5.00,000.00,029.1,027.3,000.0,037.8,030.5,12.5,0000.0,0008.88,0003.20,0002.64
2023-10-14 02:44:00,SystemResetWarning,0836.3,5.01,000.00,029.1,027.2,000.0,037.7,030.5,12.5,0000.0,0009.39,0003.23,0002.68
2023-10-14 02:45:00,SystemResetWarning,0836.3,5.02,000.00,029.0,027.2,000.0,037.7,030.5,12.5,0000.0,0008.59,0003.23,0002.70
2023-10-14 02:46:00,SystemResetWarning,0836.3,4.99,000.00,029.0,027.3,000.0,037.7,030.5,12.6,0000.0,0008.17,0003.20,0002.72
2023-10-14 02:47:00,SystemResetWarning,0836.4,4.99,000.00,029.0,027.3,000.0,037.7,030.5,12.6,0000.0,0006.52,0003.19,0002.73
2023-10-14 02:48:00,SystemResetWarning,0836.4,5.01,000.00,029.0,027.3,000.0,037.7,030.5,12.6,0000.0,0006.66,0003.16,0002.75
2023-10-14 02:49:00,SystemResetWarning,0836.4,5.00,000.00,029.0,027.3,000.0,037.6,030.5,12.6,0000.0,0007.72,0003.13,0002.74
2023-10-14 02:50:00,SystemResetWarning,0836.4,5.01,000.00,029.0,027.3,000.0,037.6,030.5,12.6,0000.0,0007.65,0003.12,0002.73
2023-10-14 02:51:00,SystemResetWarning,0836.4,5.00,000.00,029.0,027.3,000.0,037.6,030.5,12.6,0000.0,0007.75,0003.14,0002.73
2023-10-14 02:52:00,SystemResetWarning,0836.4,5.00,000.00,029.0,027.3,000.0,037.6,030.4,12.7,0000.0,0008.41,0003.17,0002.75
2023-10-14 02:53:00,SystemResetWarning,0836.4,5.00,000.00,029.0,027.3,000.0,037.6,030.4,12.7,0000.0,0008.48,0003.16,0002.77
2023-10-14 02:54:00,SystemResetWarning,0836.4,5.00,000.00,029.0,027.3,000.0,037.6,030.4,12.7,0000.0,0008.62,0003.18,0002.78
2023-10-14 02:55:00,SystemResetWarning,0836.4,5.00,000.00,028.9,027.3,000.0,037.5,030.4,12.8,0000.0,0008.14,0003.18,0002.79
2023-10-14 02:56:00,SystemResetWarning,0836.4,4.99,000.00,028.9,027.3,000.0,037.5,030.4,12.7,0000.0,0008.25,0003.20,0002.80
2023-10-14 02:57:00,SystemResetWarning,0836.5,5.00,000.00,028.9,027.3,000.0,037.5,030.4,12.8,0000.0,0008.51,0003.22,0002.80
2023-10-14 02:58:00,SystemResetWarning,0836.5,5.00,000.00,028.9,027.3,000.0,037.5,030.4,12.8,0000.0,0008.42,0003.23,0002.80
2023-10-14 02:59:00,SystemResetWarning,0836.5,5.00,000.00,028.9,027.3,000.0,037.5,030.4,12.9,0000.0,0008.18,0003.25,0002.80
